Weather History for Weaverville, CA

Change the Weather History Date:

Monday, October 28, 2013

  Actual Average (KRDD) Record (KRDD)
Temperature  
Mean Temperature 46 °F -  
Max Temperature 59 °F 71 °F 97 °F (2003)
Min Temperature 32 °F 46 °F 36 °F (2011)
Degree Days  
Heating Degree Days 20    
Cooling Degree Days 0    
Moisture  
Dew Point 34 °F    
Average Humidity 69    
Maximum Humidity 93    
Minimum Humidity 36    
Precipitation  
Precipitation 0.01 in 0.10 in 1.39 in (2000)
Month to date precipitation 1.77  
Year to date precipitation 23.54  
Since 1 July precipitation 2.68  
Sea Level Pressure  
Sea Level Pressure 29.69 in    
Wind  
Wind Speed 2 mph (NNW)    
Max Wind Speed 9 mph    
Max Gust Speed -    
Visibility 10 miles    
Events      
T = Trace of Precipitation, MM = Missing Value Source: NWS Daily Summary

Daily Weather History Graph

Daily Weather History Graph

Search for Another Location

Airport:

Trip Planner

Search our weather history database for the weather conditions in past years. The results will help you decide how hot, cold, wet, or windy it might be!

Date:

Astronomy

Oct. 28, 2013 Rise Set
Actual Time 7:37 AM PDT 6:12 PM PDT
Civil Twilight 7:09 AM PDT 6:40 PM PDT
Nautical Twilight 6:37 AM PDT 7:12 PM PDT
Astronomical Twilight 6:05 AM PDT 7:44 PM PDT
Moon 1:34 AM PDT (10/28) 2:59 PM PDT (10/28)
Length of Visible Light 11h 31m
Length of Day
10h 34m
Waning Crescent, 33% of the Moon is Illuminated
Oct 28
Waning Crescent
Nov 3
New
Nov 9
First Quarter
Nov 17
Full
Nov 25
Last Quarter

Hourly Weather History & Observations

Time (PDT) Temp. Windchill Dew Point Humidity Pressure Visibility Wind Dir Wind Speed Gust Speed Precip Events Conditions
12:15 AM 39.2 °F 35.9 °F 32.0 °F 75% 29.67 in 10.0 mi NNE 4.6 mph - N/A   Mostly Cloudy
12:35 AM 39.2 °F - 32.0 °F 75% 29.67 in 10.0 mi Calm Calm - N/A   Mostly Cloudy
12:55 AM 37.4 °F - 32.0 °F 81% 29.67 in 10.0 mi Calm Calm - N/A   Mostly Cloudy
1:15 AM 37.4 °F 34.9 °F 32.0 °F 81% 29.67 in 10.0 mi North 3.5 mph - N/A   Mostly Cloudy
1:35 AM 35.6 °F 32.8 °F 32.0 °F 87% 29.67 in 10.0 mi NNE 3.5 mph - N/A   Mostly Cloudy
1:55 AM 35.6 °F 32.8 °F 32.0 °F 87% 29.66 in 10.0 mi NNE 3.5 mph - N/A   Overcast
2:15 AM 35.6 °F 31.7 °F 30.2 °F 81% 29.67 in 10.0 mi NNE 4.6 mph - N/A   Overcast
2:35 AM 35.6 °F - 30.2 °F 81% 29.66 in 10.0 mi Calm Calm - N/A   Mostly Cloudy
2:55 AM 35.6 °F - 30.2 °F 81% 29.66 in 10.0 mi Calm Calm - N/A   Overcast
3:15 AM 33.8 °F - 30.2 °F 87% 29.65 in 10.0 mi Calm Calm - N/A   Mostly Cloudy
3:35 AM 33.8 °F - 30.2 °F 87% 29.65 in 10.0 mi Calm Calm - N/A   Mostly Cloudy
3:55 AM 33.8 °F - 28.4 °F 81% 29.64 in 10.0 mi Calm Calm - N/A   Mostly Cloudy
4:15 AM 32.0 °F - 28.4 °F 87% 29.65 in 10.0 mi Calm Calm - N/A   Overcast
4:35 AM 32.0 °F 28.7 °F 28.4 °F 87% 29.65 in 10.0 mi NNE 3.5 mph - N/A   Overcast
4:55 AM 32.0 °F 28.7 °F 28.4 °F 87% 29.65 in 10.0 mi ENE 3.5 mph - N/A   Overcast
5:15 AM 32.0 °F 28.7 °F 28.4 °F 87% 29.65 in 10.0 mi ENE 3.5 mph - N/A   Overcast
5:35 AM 32.0 °F - 30.2 °F 93% 29.63 in 10.0 mi Calm Calm - N/A   Mostly Cloudy
5:55 AM 32.0 °F 28.7 °F 28.4 °F 87% 29.65 in 10.0 mi NE 3.5 mph - N/A   Overcast
6:15 AM 32.0 °F 28.7 °F 28.4 °F 87% 29.64 in 10.0 mi North 3.5 mph - N/A   Mostly Cloudy
6:35 AM 33.8 °F - 30.2 °F 87% 29.64 in 10.0 mi Calm Calm - N/A   Mostly Cloudy
6:55 AM 33.8 °F - 30.2 °F 87% 29.65 in 10.0 mi Calm Calm - N/A   Mostly Cloudy
7:15 AM 33.8 °F - 30.2 °F 87% 29.65 in 10.0 mi Calm Calm - N/A   Mostly Cloudy
7:35 AM 33.8 °F - 30.2 °F 87% 29.66 in 10.0 mi Calm Calm - N/A   Scattered Clouds
7:55 AM 33.8 °F - 30.2 °F 87% 29.66 in 10.0 mi Calm Calm - N/A   Clear
8:15 AM 35.6 °F - 32.0 °F 87% 29.67 in 10.0 mi Calm Calm - N/A   Clear
8:35 AM 35.6 °F - 32.0 °F 87% 29.67 in 10.0 mi Calm Calm - N/A   Clear
8:55 AM 39.2 °F - 32.0 °F 75% 29.67 in 10.0 mi Calm Calm - N/A   Clear
9:15 AM 41.0 °F - 32.0 °F 70% 29.68 in 10.0 mi Calm Calm - N/A   Clear
9:35 AM 42.8 °F - 32.0 °F 66% 29.68 in 10.0 mi Calm Calm - N/A   Partly Cloudy
9:55 AM 44.6 °F - 32.0 °F 61% 29.68 in 10.0 mi Calm Calm - N/A   Scattered Clouds
10:15 AM 46.4 °F - 33.8 °F 62% 29.68 in 10.0 mi Calm Calm - N/A   Mostly Cloudy
10:35 AM 48.2 °F - 33.8 °F 58% 29.69 in 10.0 mi Calm Calm - N/A   Partly Cloudy
10:55 AM 48.2 °F - 33.8 °F 58% 29.68 in 10.0 mi SSW 3.5 mph - N/A   Clear
11:15 AM 50.0 °F - 33.8 °F 54% 29.68 in 10.0 mi Calm Calm - N/A   Mostly Cloudy
11:35 AM 50.0 °F - 33.8 °F 54% 29.67 in 10.0 mi SW 3.5 mph - N/A   Scattered Clouds
11:55 AM 51.8 °F - 32.0 °F 47% 29.67 in 10.0 mi Calm Calm - N/A   Partly Cloudy
12:15 PM 53.6 °F - 32.0 °F 44% 29.67 in 10.0 mi SSE 3.5 mph - N/A   Mostly Cloudy
12:35 PM 55.4 °F - 32.0 °F 41% 29.66 in 10.0 mi SE 3.5 mph - N/A   Mostly Cloudy
12:55 PM 55.4 °F - 32.0 °F 41% 29.65 in 10.0 mi South 6.9 mph - N/A   Scattered Clouds
1:15 PM 55.4 °F - 32.0 °F 41% 29.65 in 10.0 mi WSW 3.5 mph - N/A   Scattered Clouds
1:35 PM 57.2 °F - 32.0 °F 38% 29.64 in 10.0 mi WSW 5.8 mph - N/A   Mostly Cloudy
1:55 PM 57.2 °F - 32.0 °F 38% 29.64 in 10.0 mi SW 3.5 mph - N/A   Overcast
2:15 PM 57.2 °F - 32.0 °F 38% 29.64 in 10.0 mi SW 3.5 mph - N/A   Overcast
2:35 PM 57.2 °F - 32.0 °F 38% 29.63 in 10.0 mi WSW 4.6 mph - N/A   Overcast
2:55 PM 59.0 °F - 32.0 °F 36% 29.63 in 10.0 mi West 5.8 mph - N/A   Overcast
3:15 PM 57.2 °F - 32.0 °F 38% 29.63 in 10.0 mi WSW 4.6 mph - N/A   Overcast
3:35 PM 57.2 °F - 32.0 °F 38% 29.63 in 10.0 mi SW 6.9 mph - N/A   Overcast
3:55 PM 59.0 °F - 32.0 °F 36% 29.64 in 10.0 mi SW 4.6 mph - N/A   Overcast
4:15 PM 57.2 °F - 33.8 °F 41% 29.65 in 10.0 mi NNW 9.2 mph - N/A   Overcast
4:35 PM 57.2 °F - 33.8 °F 41% 29.66 in 10.0 mi East 3.5 mph - N/A   Overcast
4:55 PM 55.4 °F - 35.6 °F 47% 29.66 in 10.0 mi Calm Calm - N/A   Overcast
5:15 PM 53.6 °F - 35.6 °F 51% 29.68 in 10.0 mi Calm Calm - N/A   Overcast
5:35 PM 53.6 °F - 35.6 °F 51% 29.68 in 10.0 mi Calm Calm - N/A   Overcast
5:55 PM 53.6 °F - 35.6 °F 51% 29.69 in 10.0 mi Calm Calm - N/A   Overcast
6:15 PM 51.8 °F - 37.4 °F 58% 29.70 in 10.0 mi Calm Calm - N/A   Overcast
6:35 PM 50.0 °F - 37.4 °F 62% 29.71 in 10.0 mi Calm Calm - N/A   Overcast
6:55 PM 50.0 °F - 37.4 °F 62% 29.72 in 10.0 mi Calm Calm - N/A   Overcast
7:15 PM 50.0 °F - 37.4 °F 62% 29.73 in 10.0 mi Calm Calm - N/A   Overcast
7:35 PM 50.0 °F - 37.4 °F 62% 29.74 in 10.0 mi North 3.5 mph - N/A   Overcast
7:55 PM 50.0 °F - 39.2 °F 66% 29.74 in 5.0 mi Calm Calm - N/A   Overcast
8:15 PM 48.2 °F - 42.8 °F 82% 29.75 in 10.0 mi Calm Calm - N/A   Overcast
8:35 PM 46.4 °F - 42.8 °F 87% 29.75 in 9.0 mi Calm Calm - 0.01 in   Overcast
8:55 PM 46.4 °F - 44.6 °F 93% 29.76 in 10.0 mi Calm Calm - 0.01 in   Overcast
9:15 PM 46.4 °F - 44.6 °F 93% 29.77 in 10.0 mi Calm Calm - N/A   Overcast
9:35 PM 46.4 °F - 42.8 °F 87% 29.78 in 10.0 mi Calm Calm - N/A   Overcast
9:55 PM 46.4 °F - 42.8 °F 87% 29.79 in 10.0 mi Calm Calm - N/A   Overcast
10:15 PM 46.4 °F - 42.8 °F 87% 29.80 in 10.0 mi Calm Calm - N/A   Overcast
10:35 PM 46.4 °F - 42.8 °F 87% 29.81 in 9.0 mi Calm Calm - N/A   Overcast
10:55 PM 46.4 °F 45.2 °F 42.8 °F 87% 29.81 in 10.0 mi NNE 3.5 mph - N/A   Overcast
11:15 PM 44.6 °F - 42.8 °F 93% 29.82 in 8.0 mi Calm Calm - N/A   Overcast
11:35 PM 44.6 °F - 42.8 °F 93% 29.82 in 10.0 mi Calm Calm - N/A   Overcast
11:55 PM 44.6 °F - 42.8 °F 93% 29.83 in 10.0 mi Calm Calm - N/A   Overcast